Year,Month,Day,Hour,Minute,Value (Times are PST for temperature in C)
2012,09,17,00,00,10.20
2012,09,17,00,01,10.20
2012,09,17,00,02,10.20
2012,09,17,00,03,10.20
2012,09,17,00,04,10.20
2012,09,17,00,05,10.20
2012,09,17,00,06,10.20
2012,09,17,00,07,10.10
2012,09,17,00,08,10.10
2012,09,17,00,09,10.10
2012,09,17,00,10,10.10
2012,09,17,00,11,10.10
2012,09,17,00,12,10.20
2012,09,17,00,13,10.20
2012,09,17,00,14,10.20
2012,09,17,00,15,10.20
2012,09,17,00,16,10.10
2012,09,17,00,17,10.10
2012,09,17,00,18,10.10
2012,09,17,00,19,10.00
2012,09,17,00,20,10.00
2012,09,17,00,21,10.00
2012,09,17,00,22,10.00
2012,09,17,00,23,10.10
2012,09,17,00,24,10.10
2012,09,17,00,25,10.10
2012,09,17,00,26,10.10
2012,09,17,00,27,10.10
2012,09,17,00,28,10.10
2012,09,17,00,29,10.00
2012,09,17,00,30,10.00
2012,09,17,00,31,9.90
2012,09,17,00,32,9.90
2012,09,17,00,33,9.80
2012,09,17,00,34,9.80
2012,09,17,00,35,9.80
2012,09,17,00,36,9.80
2012,09,17,00,37,9.80
2012,09,17,00,38,9.80
2012,09,17,00,39,9.70
2012,09,17,00,40,9.70
2012,09,17,00,41,9.70
2012,09,17,00,42,9.70
2012,09,17,00,43,9.70
2012,09,17,00,44,9.70
2012,09,17,00,45,9.70
2012,09,17,00,46,9.80
2012,09,17,00,47,9.80
2012,09,17,00,48,9.80
2012,09,17,00,49,9.80
2012,09,17,00,50,9.80
2012,09,17,00,51,9.80
2012,09,17,00,52,9.80
2012,09,17,00,53,9.80
2012,09,17,00,54,9.70
2012,09,17,00,55,9.70
2012,09,17,00,56,9.70
2012,09,17,00,57,9.60
2012,09,17,00,58,9.60
2012,09,17,00,59,9.50
2012,09,17,01,00,9.50
2012,09,17,01,01,9.40
2012,09,17,01,02,9.40
2012,09,17,01,03,9.40
2012,09,17,01,04,9.40
2012,09,17,01,05,9.40
2012,09,17,01,06,9.40
2012,09,17,01,07,9.40
2012,09,17,01,08,9.40
2012,09,17,01,09,9.40
2012,09,17,01,10,9.40
2012,09,17,01,11,9.40
2012,09,17,01,12,9.40
2012,09,17,01,13,9.40
2012,09,17,01,14,9.40
2012,09,17,01,15,9.30
2012,09,17,01,16,9.30
2012,09,17,01,17,9.30
2012,09,17,01,18,9.30
2012,09,17,01,19,9.30
2012,09,17,01,20,9.30
2012,09,17,01,21,9.30
2012,09,17,01,22,9.30
2012,09,17,01,23,9.30
2012,09,17,01,24,9.20
2012,09,17,01,25,9.20
2012,09,17,01,26,9.20
2012,09,17,01,27,9.20
2012,09,17,01,28,9.20
2012,09,17,01,29,9.20
2012,09,17,01,30,9.20
2012,09,17,01,31,9.20
2012,09,17,01,32,9.10
2012,09,17,01,33,9.10
2012,09,17,01,34,9.10
2012,09,17,01,35,9.10
2012,09,17,01,36,9.20
2012,09,17,01,37,9.20
2012,09,17,01,38,9.20
2012,09,17,01,39,9.30
2012,09,17,01,40,9.30
2012,09,17,01,41,9.30
2012,09,17,01,42,9.30
2012,09,17,01,43,9.30
2012,09,17,01,44,9.40
2012,09,17,01,45,9.40
2012,09,17,01,46,9.50
2012,09,17,01,47,9.50
2012,09,17,01,48,9.50
2012,09,17,01,49,9.50
2012,09,17,01,50,9.40
2012,09,17,01,51,9.40
2012,09,17,01,52,9.40
2012,09,17,01,53,9.40
2012,09,17,01,54,9.40
2012,09,17,01,55,9.40
2012,09,17,01,56,9.40
2012,09,17,01,57,9.40
2012,09,17,01,58,9.40
2012,09,17,01,59,9.40
2012,09,17,02,00,9.50
2012,09,17,02,01,9.50
2012,09,17,02,02,9.50
2012,09,17,02,03,9.60
2012,09,17,02,04,9.60
2012,09,17,02,05,9.60
2012,09,17,02,06,9.50
2012,09,17,02,07,9.40
2012,09,17,02,08,9.40
2012,09,17,02,09,9.40
2012,09,17,02,10,9.30
2012,09,17,02,11,9.30
2012,09,17,02,12,9.30
2012,09,17,02,13,9.30
2012,09,17,02,14,9.20
2012,09,17,02,15,9.10
2012,09,17,02,16,9.00
2012,09,17,02,17,8.90
2012,09,17,02,18,8.80
2012,09,17,02,19,8.70
2012,09,17,02,20,8.70
2012,09,17,02,21,8.60
2012,09,17,02,22,8.60
2012,09,17,02,23,8.60
2012,09,17,02,24,8.70
2012,09,17,02,25,8.70
2012,09,17,02,26,8.70
2012,09,17,02,27,8.70
2012,09,17,02,28,8.70
2012,09,17,02,29,8.80
2012,09,17,02,30,8.80
2012,09,17,02,31,8.80
2012,09,17,02,32,8.80
2012,09,17,02,33,8.80
2012,09,17,02,34,8.80
2012,09,17,02,35,8.80
2012,09,17,02,36,8.80
2012,09,17,02,37,8.80
2012,09,17,02,38,8.80
2012,09,17,02,39,8.70
2012,09,17,02,40,8.70
2012,09,17,02,41,8.70
2012,09,17,02,42,8.70
2012,09,17,02,43,8.70
2012,09,17,02,44,8.60
2012,09,17,02,45,8.60
2012,09,17,02,46,8.60
2012,09,17,02,47,8.50
2012,09,17,02,48,8.50
2012,09,17,02,49,8.50
2012,09,17,02,50,8.50
2012,09,17,02,51,8.60
2012,09,17,02,52,8.60
2012,09,17,02,53,8.60
2012,09,17,02,54,8.60
2012,09,17,02,55,8.60
2012,09,17,02,56,8.70
2012,09,17,02,57,8.70
2012,09,17,02,58,8.70
2012,09,17,02,59,8.80
2012,09,17,03,00,8.80
2012,09,17,03,01,8.80
2012,09,17,03,02,8.90
2012,09,17,03,03,8.90
2012,09,17,03,04,8.90
2012,09,17,03,05,8.90
2012,09,17,03,06,8.80
2012,09,17,03,07,8.80
2012,09,17,03,08,8.80
2012,09,17,03,09,8.80
2012,09,17,03,10,8.80
2012,09,17,03,11,8.70
2012,09,17,03,12,8.70
2012,09,17,03,13,8.70
2012,09,17,03,14,8.70
2012,09,17,03,15,8.70
2012,09,17,03,16,8.70
2012,09,17,03,17,8.80
2012,09,17,03,18,8.80
2012,09,17,03,19,8.90
2012,09,17,03,20,9.00
2012,09,17,03,21,9.00
2012,09,17,03,22,9.00
2012,09,17,03,23,9.10
2012,09,17,03,24,9.10
2012,09,17,03,25,9.20
2012,09,17,03,26,9.20
2012,09,17,03,27,9.20
2012,09,17,03,28,9.20
2012,09,17,03,29,9.20
2012,09,17,03,30,9.20
2012,09,17,03,31,9.10
2012,09,17,03,32,9.10
2012,09,17,03,33,9.00
2012,09,17,03,34,8.90
2012,09,17,03,35,8.90
2012,09,17,03,36,8.90
2012,09,17,03,37,8.90
2012,09,17,03,38,9.00
2012,09,17,03,39,9.00
2012,09,17,03,40,9.00
2012,09,17,03,41,9.10
2012,09,17,03,42,9.10
2012,09,17,03,43,9.10
2012,09,17,03,44,9.10
2012,09,17,03,45,9.10
2012,09,17,03,46,9.10
2012,09,17,03,47,9.10
2012,09,17,03,48,9.10
2012,09,17,03,49,9.10
2012,09,17,03,50,9.10
2012,09,17,03,51,9.10
2012,09,17,03,52,9.00
2012,09,17,03,53,8.90
2012,09,17,03,54,8.80
2012,09,17,03,55,8.70
2012,09,17,03,56,8.60
2012,09,17,03,57,8.50
2012,09,17,03,58,8.40
2012,09,17,03,59,8.30
2012,09,17,04,00,8.30
2012,09,17,04,01,8.30
2012,09,17,04,02,8.30
2012,09,17,04,03,8.30
2012,09,17,04,04,8.40
2012,09,17,04,05,8.40
2012,09,17,04,06,8.50
2012,09,17,04,07,8.50
2012,09,17,04,08,8.60
2012,09,17,04,09,8.60
2012,09,17,04,10,8.60
2012,09,17,04,11,8.60
2012,09,17,04,12,8.60
2012,09,17,04,13,8.50
2012,09,17,04,14,8.50
2012,09,17,04,15,8.60
2012,09,17,04,16,8.60
2012,09,17,04,17,8.60
2012,09,17,04,18,8.60
2012,09,17,04,19,8.60
2012,09,17,04,20,8.60
2012,09,17,04,21,8.60
2012,09,17,04,22,8.60
2012,09,17,04,23,8.50
2012,09,17,04,24,8.50
2012,09,17,04,25,8.40
2012,09,17,04,26,8.40
2012,09,17,04,27,8.30
2012,09,17,04,28,8.30
2012,09,17,04,29,8.20
2012,09,17,04,30,8.10
2012,09,17,04,31,8.10
2012,09,17,04,32,8.00
2012,09,17,04,33,8.00
2012,09,17,04,34,8.00
2012,09,17,04,35,8.00
2012,09,17,04,36,8.00
2012,09,17,04,37,8.10
2012,09,17,04,38,8.10
2012,09,17,04,39,8.10
2012,09,17,04,40,8.10
2012,09,17,04,41,8.20
2012,09,17,04,42,8.20
2012,09,17,04,43,8.30
2012,09,17,04,44,8.30
2012,09,17,04,45,8.20
2012,09,17,04,46,8.20
2012,09,17,04,47,8.20
2012,09,17,04,48,8.10
2012,09,17,04,49,8.10
2012,09,17,04,50,8.10
2012,09,17,04,51,8.00
2012,09,17,04,52,8.00
2012,09,17,04,53,8.00
2012,09,17,04,54,8.00
2012,09,17,04,55,8.00
2012,09,17,04,56,8.00
2012,09,17,04,57,8.10
2012,09,17,04,58,8.10
2012,09,17,04,59,8.00
2012,09,17,05,00,8.00
2012,09,17,05,01,8.00
2012,09,17,05,02,8.00
2012,09,17,05,03,8.00
2012,09,17,05,04,8.00
2012,09,17,05,05,8.10
2012,09,17,05,06,8.10
2012,09,17,05,07,8.10
2012,09,17,05,08,8.10
2012,09,17,05,09,8.20
2012,09,17,05,10,8.10
2012,09,17,05,11,8.10
2012,09,17,05,12,8.10
2012,09,17,05,13,8.10
2012,09,17,05,14,8.00
2012,09,17,05,15,8.00
2012,09,17,05,16,8.00
2012,09,17,05,17,8.00
2012,09,17,05,18,8.00
2012,09,17,05,19,8.00
2012,09,17,05,20,8.10
2012,09,17,05,21,8.10
2012,09,17,05,22,8.20
2012,09,17,05,23,8.20
2012,09,17,05,24,8.20
2012,09,17,05,25,8.20
2012,09,17,05,26,8.10
2012,09,17,05,27,8.10
2012,09,17,05,28,8.10
2012,09,17,05,29,8.00
2012,09,17,05,30,8.00
2012,09,17,05,31,7.90
2012,09,17,05,32,7.80
2012,09,17,05,33,7.70
2012,09,17,05,34,7.70
2012,09,17,05,35,7.70
2012,09,17,05,36,7.70
2012,09,17,05,37,7.70
2012,09,17,05,38,7.70
2012,09,17,05,39,7.70
2012,09,17,05,40,7.70
2012,09,17,05,41,7.70
2012,09,17,05,42,7.70
2012,09,17,05,43,7.70
2012,09,17,05,44,7.70
2012,09,17,05,45,7.60
2012,09,17,05,46,7.60
2012,09,17,05,47,7.60
2012,09,17,05,48,7.70
2012,09,17,05,49,7.70
2012,09,17,05,50,7.70
2012,09,17,05,51,7.70
2012,09,17,05,52,7.80
2012,09,17,05,53,7.80
2012,09,17,05,54,7.80
2012,09,17,05,55,7.80
2012,09,17,05,56,7.90
2012,09,17,05,57,7.90
2012,09,17,05,58,7.80
2012,09,17,05,59,7.80
2012,09,17,06,00,7.80
2012,09,17,06,01,7.80
2012,09,17,06,02,7.80
2012,09,17,06,03,7.80
2012,09,17,06,04,7.70
2012,09,17,06,05,7.70
2012,09,17,06,06,7.70
2012,09,17,06,07,7.70
2012,09,17,06,08,7.80
2012,09,17,06,09,7.80
2012,09,17,06,10,7.80
2012,09,17,06,11,7.80
2012,09,17,06,12,7.80
2012,09,17,06,13,7.80
2012,09,17,06,14,7.70
2012,09,17,06,15,7.60
2012,09,17,06,16,7.60
2012,09,17,06,17,7.50
2012,09,17,06,18,7.40
2012,09,17,06,19,7.40
2012,09,17,06,20,7.30
2012,09,17,06,21,7.30
2012,09,17,06,22,7.30
2012,09,17,06,23,7.30
2012,09,17,06,24,7.30
2012,09,17,06,25,7.30
2012,09,17,06,26,7.40
2012,09,17,06,27,7.40
2012,09,17,06,28,7.50
2012,09,17,06,29,7.50
2012,09,17,06,30,7.50
2012,09,17,06,31,7.50
2012,09,17,06,32,7.50
2012,09,17,06,33,7.50
2012,09,17,06,34,7.50
2012,09,17,06,35,7.40
2012,09,17,06,36,7.40
2012,09,17,06,37,7.40
2012,09,17,06,38,7.40
2012,09,17,06,39,7.40
2012,09,17,06,40,7.30
2012,09,17,06,41,7.30
2012,09,17,06,42,7.30
2012,09,17,06,43,7.30
2012,09,17,06,44,7.20
2012,09,17,06,45,7.20
2012,09,17,06,46,7.20
2012,09,17,06,47,7.20
2012,09,17,06,48,7.20
2012,09,17,06,49,7.10
2012,09,17,06,50,7.10
2012,09,17,06,51,7.10
2012,09,17,06,52,7.10
2012,09,17,06,53,7.10
2012,09,17,06,54,7.20
2012,09,17,06,55,7.20
2012,09,17,06,56,7.30
2012,09,17,06,57,7.30
2012,09,17,06,58,7.30
2012,09,17,06,59,7.30
2012,09,17,07,00,7.30
2012,09,17,07,01,7.30
2012,09,17,07,02,7.30
2012,09,17,07,03,7.30
2012,09,17,07,04,7.30
2012,09,17,07,05,7.30
2012,09,17,07,06,7.30
2012,09,17,07,07,7.30
2012,09,17,07,08,7.30
2012,09,17,07,09,7.30
2012,09,17,07,10,7.30
2012,09,17,07,11,7.30
2012,09,17,07,12,7.30
2012,09,17,07,13,7.30
2012,09,17,07,14,7.20
2012,09,17,07,15,7.20
2012,09,17,07,16,7.20
2012,09,17,07,17,7.20
2012,09,17,07,18,7.30
2012,09,17,07,19,7.30
2012,09,17,07,20,7.40
2012,09,17,07,21,7.50
2012,09,17,07,22,7.50
2012,09,17,07,23,7.60
2012,09,17,07,24,7.60
2012,09,17,07,25,7.70
2012,09,17,07,26,7.70
2012,09,17,07,27,7.80
2012,09,17,07,28,7.80
2012,09,17,07,29,7.80
2012,09,17,07,30,7.80
2012,09,17,07,31,7.80
2012,09,17,07,32,7.80
2012,09,17,07,33,7.80
2012,09,17,07,34,7.90
2012,09,17,07,35,7.90
2012,09,17,07,36,7.90
2012,09,17,07,37,8.00
2012,09,17,07,38,8.00
2012,09,17,07,39,8.10
2012,09,17,07,40,8.10
2012,09,17,07,41,8.20
2012,09,17,07,42,8.20
2012,09,17,07,43,8.20
2012,09,17,07,44,8.30
2012,09,17,07,45,8.30
2012,09,17,07,46,8.30
2012,09,17,07,47,8.30
2012,09,17,07,48,8.30
2012,09,17,07,49,8.40
2012,09,17,07,50,8.40
2012,09,17,07,51,8.40
2012,09,17,07,52,8.40
2012,09,17,07,53,8.40
2012,09,17,07,54,8.40
2012,09,17,07,55,8.40
2012,09,17,07,56,8.50
2012,09,17,07,57,8.60
2012,09,17,07,58,8.70
2012,09,17,07,59,8.80
2012,09,17,08,00,8.80
2012,09,17,08,01,8.90
2012,09,17,08,02,8.90
2012,09,17,08,03,9.00
2012,09,17,08,04,9.10
2012,09,17,08,05,9.20
2012,09,17,08,06,9.20
2012,09,17,08,07,9.30
2012,09,17,08,08,9.40
2012,09,17,08,09,9.40
2012,09,17,08,10,9.50
2012,09,17,08,11,9.60
2012,09,17,08,12,9.70
2012,09,17,08,13,9.80
2012,09,17,08,14,9.80
2012,09,17,08,15,9.90
2012,09,17,08,16,10.00
2012,09,17,08,17,10.10
2012,09,17,08,18,10.20
2012,09,17,08,19,10.30
2012,09,17,08,20,10.40
2012,09,17,08,21,10.50
2012,09,17,08,22,10.60
2012,09,17,08,23,10.70
2012,09,17,08,24,10.80
2012,09,17,08,25,10.80
2012,09,17,08,26,10.90
2012,09,17,08,27,11.00
2012,09,17,08,28,11.10
2012,09,17,08,29,11.20
2012,09,17,08,30,11.30
2012,09,17,08,31,11.40
2012,09,17,08,32,11.40
2012,09,17,08,33,11.50
2012,09,17,08,34,11.60
2012,09,17,08,35,11.70
2012,09,17,08,36,11.80
2012,09,17,08,37,11.80
2012,09,17,08,38,11.90
2012,09,17,08,39,12.00
2012,09,17,08,40,12.10
2012,09,17,08,41,12.10
2012,09,17,08,42,12.20
2012,09,17,08,43,12.30
2012,09,17,08,44,12.40
2012,09,17,08,45,12.40
2012,09,17,08,46,12.50
2012,09,17,08,47,12.60
2012,09,17,08,48,12.70
2012,09,17,08,49,12.70
2012,09,17,08,50,12.80
2012,09,17,08,51,13.00
2012,09,17,08,52,13.10
2012,09,17,08,53,13.20
2012,09,17,08,54,13.30
2012,09,17,08,55,13.40
2012,09,17,08,56,13.50
2012,09,17,08,57,13.70
2012,09,17,08,58,13.80
2012,09,17,08,59,13.90
2012,09,17,09,00,14.00
2012,09,17,09,01,14.20
2012,09,17,09,02,14.30
2012,09,17,09,03,14.40
2012,09,17,09,04,14.50
2012,09,17,09,05,14.60
2012,09,17,09,06,14.70
2012,09,17,09,07,14.80
2012,09,17,09,08,14.90
2012,09,17,09,09,15.00
2012,09,17,09,10,15.10
2012,09,17,09,11,15.20
2012,09,17,09,12,15.30
2012,09,17,09,13,15.40
2012,09,17,09,14,15.40
2012,09,17,09,15,15.50
2012,09,17,09,16,15.60
2012,09,17,09,17,15.60
2012,09,17,09,18,15.70
2012,09,17,09,19,15.80
2012,09,17,09,20,15.90
2012,09,17,09,21,15.90
2012,09,17,09,22,16.00
2012,09,17,09,23,16.10
2012,09,17,09,24,16.20
2012,09,17,09,25,16.20
2012,09,17,09,26,16.20
2012,09,17,09,27,16.30
2012,09,17,09,28,16.30
2012,09,17,09,29,16.40
2012,09,17,09,30,16.50
2012,09,17,09,31,16.60
2012,09,17,09,32,16.60
2012,09,17,09,33,16.70
2012,09,17,09,34,16.80
2012,09,17,09,35,16.80
2012,09,17,09,36,16.80
2012,09,17,09,37,16.90
2012,09,17,09,38,16.90
2012,09,17,09,39,16.90
2012,09,17,09,40,16.90
2012,09,17,09,41,17.00
2012,09,17,09,42,17.00
2012,09,17,09,43,17.00
2012,09,17,09,44,17.00
2012,09,17,09,45,17.00
2012,09,17,09,46,17.00
2012,09,17,09,47,17.10
2012,09,17,09,48,17.10
2012,09,17,09,49,17.10
2012,09,17,09,50,17.10
2012,09,17,09,51,17.00
2012,09,17,09,52,17.00
2012,09,17,09,53,16.90
2012,09,17,09,54,16.90
2012,09,17,09,55,16.90
2012,09,17,09,56,16.90
2012,09,17,09,57,16.90
2012,09,17,09,58,17.00
2012,09,17,09,59,17.00
2012,09,17,10,00,17.10
2012,09,17,10,01,17.10
2012,09,17,10,02,17.20
2012,09,17,10,03,17.30
2012,09,17,10,04,17.30
2012,09,17,10,05,17.40
2012,09,17,10,06,17.50
2012,09,17,10,07,17.60
2012,09,17,10,08,17.70
2012,09,17,10,09,17.80
2012,09,17,10,10,17.80
2012,09,17,10,11,17.90
2012,09,17,10,12,18.00
2012,09,17,10,13,18.00
2012,09,17,10,14,18.10
2012,09,17,10,15,18.10
2012,09,17,10,16,18.20
2012,09,17,10,17,18.20
2012,09,17,10,18,18.20
2012,09,17,10,19,18.20
2012,09,17,10,20,18.30
2012,09,17,10,21,18.30
2012,09,17,10,22,18.30
2012,09,17,10,23,18.30
2012,09,17,10,24,18.30
2012,09,17,10,25,18.40
2012,09,17,10,26,18.40
2012,09,17,10,27,18.40
2012,09,17,10,28,18.40
2012,09,17,10,29,18.50
2012,09,17,10,30,18.50
2012,09,17,10,31,18.60
2012,09,17,10,32,18.60
2012,09,17,10,33,18.60
2012,09,17,10,34,18.60
2012,09,17,10,35,18.60
2012,09,17,10,36,18.50
2012,09,17,10,37,18.50
2012,09,17,10,38,18.40
2012,09,17,10,39,18.40
2012,09,17,10,40,18.30
2012,09,17,10,41,18.30
2012,09,17,10,42,18.30
2012,09,17,10,43,18.30
2012,09,17,10,44,18.30
2012,09,17,10,45,18.30
2012,09,17,10,46,18.30
2012,09,17,10,47,18.30
2012,09,17,10,48,18.40
2012,09,17,10,49,18.40
2012,09,17,10,50,18.50
2012,09,17,10,51,18.50
2012,09,17,10,52,18.60
2012,09,17,10,53,18.70
2012,09,17,10,54,18.80
2012,09,17,10,55,18.80
2012,09,17,10,56,18.90
2012,09,17,10,57,18.90
2012,09,17,10,58,18.90
2012,09,17,10,59,18.90
2012,09,17,11,00,18.90
2012,09,17,11,01,18.80
2012,09,17,11,02,18.70
2012,09,17,11,03,18.60
2012,09,17,11,04,18.50
2012,09,17,11,05,18.40
2012,09,17,11,06,18.30
2012,09,17,11,07,18.30
2012,09,17,11,08,18.20
2012,09,17,11,09,18.10
2012,09,17,11,10,18.10
2012,09,17,11,11,18.10
2012,09,17,11,12,18.00
2012,09,17,11,13,18.00
2012,09,17,11,14,18.00
2012,09,17,11,15,18.00
2012,09,17,11,16,18.10
2012,09,17,11,17,18.10
2012,09,17,11,18,18.20
2012,09,17,11,19,18.20
2012,09,17,11,20,18.20
2012,09,17,11,21,18.30
2012,09,17,11,22,18.30
2012,09,17,11,23,18.30
2012,09,17,11,24,18.30
2012,09,17,11,25,18.30
2012,09,17,11,26,18.40
2012,09,17,11,27,18.50
2012,09,17,11,28,18.60
2012,09,17,11,29,18.70
2012,09,17,11,30,18.80
2012,09,17,11,31,18.80
2012,09,17,11,32,18.90
2012,09,17,11,33,19.00
2012,09,17,11,34,19.00
2012,09,17,11,35,19.10
2012,09,17,11,36,19.10
2012,09,17,11,37,19.10
2012,09,17,11,38,19.10
2012,09,17,11,39,19.10
2012,09,17,11,40,19.10
2012,09,17,11,41,19.20
2012,09,17,11,42,19.20
2012,09,17,11,43,19.30
2012,09,17,11,44,19.30
2012,09,17,11,45,19.30
2012,09,17,11,46,19.20
2012,09,17,11,47,19.20
2012,09,17,11,48,19.10
2012,09,17,11,49,19.00
2012,09,17,11,50,18.90
2012,09,17,11,51,18.70
2012,09,17,11,52,18.60
2012,09,17,11,53,18.50
2012,09,17,11,54,18.40
2012,09,17,11,55,18.30
2012,09,17,11,56,18.30
2012,09,17,11,57,18.20
2012,09,17,11,58,18.20
2012,09,17,11,59,18.20
2012,09,17,12,00,18.20
2012,09,17,12,01,18.20
2012,09,17,12,02,18.20
2012,09,17,12,03,18.30
2012,09,17,12,04,18.30
2012,09,17,12,05,18.40
2012,09,17,12,06,18.40
2012,09,17,12,07,18.40
2012,09,17,12,08,18.40
2012,09,17,12,09,18.50
2012,09,17,12,10,18.50
2012,09,17,12,11,18.60
2012,09,17,12,12,18.60
2012,09,17,12,13,18.70
2012,09,17,12,14,18.70
2012,09,17,12,15,18.80
2012,09,17,12,16,18.90
2012,09,17,12,17,19.00
2012,09,17,12,18,19.00
2012,09,17,12,19,19.10
2012,09,17,12,20,19.10
2012,09,17,12,21,19.20
2012,09,17,12,22,19.20
2012,09,17,12,23,19.30
2012,09,17,12,24,19.40
2012,09,17,12,25,19.50
2012,09,17,12,26,19.60
2012,09,17,12,27,19.60
2012,09,17,12,28,19.60
2012,09,17,12,29,19.60
2012,09,17,12,30,19.50
2012,09,17,12,31,19.50
2012,09,17,12,32,19.40
2012,09,17,12,33,19.40
2012,09,17,12,34,19.40
2012,09,17,12,35,19.40
2012,09,17,12,36,19.40
2012,09,17,12,37,19.50
2012,09,17,12,38,19.60
2012,09,17,12,39,19.70
2012,09,17,12,40,19.70
2012,09,17,12,41,19.80
2012,09,17,12,42,19.80
2012,09,17,12,43,19.80
2012,09,17,12,44,19.80
2012,09,17,12,45,19.80
2012,09,17,12,46,19.80
2012,09,17,12,47,19.90
2012,09,17,12,48,20.00
2012,09,17,12,49,20.10
2012,09,17,12,50,20.20
2012,09,17,12,51,20.30
2012,09,17,12,52,20.30
2012,09,17,12,53,20.40
2012,09,17,12,54,20.40
2012,09,17,12,55,20.50
2012,09,17,12,56,20.60
2012,09,17,12,57,20.60
2012,09,17,12,58,20.60
2012,09,17,12,59,20.70
2012,09,17,13,00,20.70
2012,09,17,13,01,20.80
2012,09,17,13,02,20.80
2012,09,17,13,03,20.90
2012,09,17,13,04,21.00
2012,09,17,13,05,21.00
2012,09,17,13,06,21.10
2012,09,17,13,07,21.10
2012,09,17,13,08,21.10
2012,09,17,13,09,21.10
2012,09,17,13,10,21.10
2012,09,17,13,11,21.10
2012,09,17,13,12,21.10
2012,09,17,13,13,21.20
2012,09,17,13,14,21.30
2012,09,17,13,15,21.40
2012,09,17,13,16,21.50
2012,09,17,13,17,21.60
2012,09,17,13,18,21.50
2012,09,17,13,19,21.50
2012,09,17,13,20,21.50
2012,09,17,13,21,21.40
2012,09,17,13,22,21.30
2012,09,17,13,23,21.30
2012,09,17,13,24,21.20
2012,09,17,13,25,21.10
2012,09,17,13,26,21.10
2012,09,17,13,27,21.00
2012,09,17,13,28,21.00
2012,09,17,13,29,21.10
2012,09,17,13,30,21.10
2012,09,17,13,31,21.10
2012,09,17,13,32,21.20
2012,09,17,13,33,21.20
2012,09,17,13,34,21.30
2012,09,17,13,35,21.40
2012,09,17,13,36,21.50
2012,09,17,13,37,21.60
2012,09,17,13,38,21.70
2012,09,17,13,39,21.70
2012,09,17,13,40,21.80
2012,09,17,13,41,22.00
2012,09,17,13,42,22.10
2012,09,17,13,43,22.20
2012,09,17,13,44,22.20
2012,09,17,13,45,22.30
2012,09,17,13,46,22.30
2012,09,17,13,47,22.40
2012,09,17,13,48,22.50
2012,09,17,13,49,22.50
2012,09,17,13,50,22.50
2012,09,17,13,51,22.50
2012,09,17,13,52,22.50
2012,09,17,13,53,22.50
2012,09,17,13,54,22.40
2012,09,17,13,55,22.40
2012,09,17,13,56,22.30
2012,09,17,13,57,22.20
2012,09,17,13,58,22.20
2012,09,17,13,59,22.20
2012,09,17,14,00,22.20
2012,09,17,14,01,22.30
2012,09,17,14,02,22.30
2012,09,17,14,03,22.30
2012,09,17,14,04,22.30
2012,09,17,14,05,22.30
2012,09,17,14,06,22.30
2012,09,17,14,07,22.30
2012,09,17,14,08,22.20
2012,09,17,14,09,22.10
2012,09,17,14,10,22.00
2012,09,17,14,11,21.90
2012,09,17,14,12,21.80
2012,09,17,14,13,21.70
2012,09,17,14,14,21.60
2012,09,17,14,15,21.60
2012,09,17,14,16,21.70
2012,09,17,14,17,21.80
2012,09,17,14,18,21.80
2012,09,17,14,19,21.90
2012,09,17,14,20,22.00
2012,09,17,14,21,22.10
2012,09,17,14,22,22.20
2012,09,17,14,23,22.30
2012,09,17,14,24,22.30
2012,09,17,14,25,22.30
2012,09,17,14,26,22.30
2012,09,17,14,27,22.30
2012,09,17,14,28,22.30
2012,09,17,14,29,22.30
2012,09,17,14,30,22.30
2012,09,17,14,31,22.40
2012,09,17,14,32,22.50
2012,09,17,14,33,22.50
2012,09,17,14,34,22.50
2012,09,17,14,35,22.40
2012,09,17,14,36,22.40
2012,09,17,14,37,22.30
2012,09,17,14,38,22.40
2012,09,17,14,39,22.30
2012,09,17,14,40,22.30
2012,09,17,14,41,22.30
2012,09,17,14,42,22.30
2012,09,17,14,43,22.30
2012,09,17,14,44,22.30
2012,09,17,14,45,22.30
2012,09,17,14,46,22.20
2012,09,17,14,47,22.20
2012,09,17,14,48,22.10
2012,09,17,14,49,22.10
2012,09,17,14,50,22.10
2012,09,17,14,51,22.00
2012,09,17,14,52,21.90
2012,09,17,14,53,21.80
2012,09,17,14,54,21.80
2012,09,17,14,55,21.90
2012,09,17,14,56,21.90
2012,09,17,14,57,21.90
2012,09,17,14,58,21.90
2012,09,17,14,59,21.90
2012,09,17,15,00,22.00
2012,09,17,15,01,22.10
2012,09,17,15,02,22.10
2012,09,17,15,03,22.10
2012,09,17,15,04,22.10
2012,09,17,15,05,22.10
2012,09,17,15,06,22.10
2012,09,17,15,07,22.00
2012,09,17,15,08,21.90
2012,09,17,15,09,21.70
2012,09,17,15,10,21.60
2012,09,17,15,11,21.50
2012,09,17,15,12,21.50
2012,09,17,15,13,21.40
2012,09,17,15,14,21.40
2012,09,17,15,15,21.40
2012,09,17,15,16,21.30
2012,09,17,15,17,21.30
2012,09,17,15,18,21.20
2012,09,17,15,19,21.20
2012,09,17,15,20,21.10
2012,09,17,15,21,21.00
2012,09,17,15,22,21.00
2012,09,17,15,23,20.90
2012,09,17,15,24,20.80
2012,09,17,15,25,20.70
2012,09,17,15,26,20.60
2012,09,17,15,27,20.50
2012,09,17,15,28,20.40
2012,09,17,15,29,20.40
2012,09,17,15,30,20.30
2012,09,17,15,31,20.40
2012,09,17,15,32,20.40
2012,09,17,15,33,20.50
2012,09,17,15,34,20.60
2012,09,17,15,35,20.60
2012,09,17,15,36,20.60
2012,09,17,15,37,20.50
2012,09,17,15,38,20.40
2012,09,17,15,39,20.40
2012,09,17,15,40,20.40
2012,09,17,15,41,20.40
2012,09,17,15,42,20.40
2012,09,17,15,43,20.40
2012,09,17,15,44,20.40
2012,09,17,15,45,20.30
2012,09,17,15,46,20.20
2012,09,17,15,47,20.20
2012,09,17,15,48,20.20
2012,09,17,15,49,20.20
2012,09,17,15,50,20.20
2012,09,17,15,51,20.20
2012,09,17,15,52,20.20
2012,09,17,15,53,20.20
2012,09,17,15,54,20.30
2012,09,17,15,55,20.30
2012,09,17,15,56,20.30
2012,09,17,15,57,20.40
2012,09,17,15,58,20.50
2012,09,17,15,59,20.60
2012,09,17,16,00,20.60
2012,09,17,16,01,20.70
2012,09,17,16,02,20.70
2012,09,17,16,03,20.70
2012,09,17,16,04,20.80
2012,09,17,16,05,20.80
2012,09,17,16,06,20.90
2012,09,17,16,07,21.00
2012,09,17,16,08,21.10
2012,09,17,16,09,21.20
2012,09,17,16,10,21.10
2012,09,17,16,11,21.10
2012,09,17,16,12,21.10
2012,09,17,16,13,21.10
2012,09,17,16,14,21.10
2012,09,17,16,15,21.10
2012,09,17,16,16,21.00
2012,09,17,16,17,21.00
2012,09,17,16,18,21.00
2012,09,17,16,19,21.10
2012,09,17,16,20,21.10
2012,09,17,16,21,21.10
2012,09,17,16,22,21.20
2012,09,17,16,23,21.30
2012,09,17,16,24,21.40
2012,09,17,16,25,21.40
2012,09,17,16,26,21.50
2012,09,17,16,27,21.50
2012,09,17,16,28,21.60
2012,09,17,16,29,21.60
2012,09,17,16,30,21.70
2012,09,17,16,31,21.70
2012,09,17,16,32,21.80
2012,09,17,16,33,21.90
2012,09,17,16,34,21.90
2012,09,17,16,35,22.00
2012,09,17,16,36,22.10
2012,09,17,16,37,22.10
2012,09,17,16,38,22.10
2012,09,17,16,39,22.20
2012,09,17,16,40,22.20
2012,09,17,16,41,22.20
2012,09,17,16,42,22.20
2012,09,17,16,43,22.20
2012,09,17,16,44,22.20
2012,09,17,16,45,22.20
2012,09,17,16,46,22.10
2012,09,17,16,47,22.10
2012,09,17,16,48,22.10
2012,09,17,16,49,22.10
2012,09,17,16,50,22.00
2012,09,17,16,51,22.00
2012,09,17,16,52,22.00
2012,09,17,16,53,22.00
2012,09,17,16,54,22.10
2012,09,17,16,55,22.10
2012,09,17,16,56,22.10
2012,09,17,16,57,22.10
2012,09,17,16,58,22.10
2012,09,17,16,59,22.10
2012,09,17,17,00,22.10
2012,09,17,17,01,22.10
2012,09,17,17,02,22.00
2012,09,17,17,03,22.00
2012,09,17,17,04,22.00
2012,09,17,17,05,21.90
2012,09,17,17,06,21.90
2012,09,17,17,07,21.90
2012,09,17,17,08,21.80
2012,09,17,17,09,21.80
2012,09,17,17,10,21.70
2012,09,17,17,11,21.70
2012,09,17,17,12,21.70
2012,09,17,17,13,21.60
2012,09,17,17,14,21.60
2012,09,17,17,15,21.60
2012,09,17,17,16,21.50
2012,09,17,17,17,21.50
2012,09,17,17,18,21.40
2012,09,17,17,19,21.40
2012,09,17,17,20,21.40
2012,09,17,17,21,21.40
2012,09,17,17,22,21.30
2012,09,17,17,23,21.30
2012,09,17,17,24,21.30
2012,09,17,17,25,21.30
2012,09,17,17,26,21.30
2012,09,17,17,27,21.30
2012,09,17,17,28,21.30
2012,09,17,17,29,21.30
2012,09,17,17,30,21.20
2012,09,17,17,31,21.20
2012,09,17,17,32,21.20
2012,09,17,17,33,21.20
2012,09,17,17,34,21.10
2012,09,17,17,35,21.10
2012,09,17,17,36,21.10
2012,09,17,17,37,21.10
2012,09,17,17,38,21.00
2012,09,17,17,39,21.00